This demonstration page uses our WeatherBlox Daily Observations layout. Learn more.

Left ArrowRight Arrow

38.20091, -84.87328

Hourly Observations for April 10, 2016

Temp ( °F °C ) Dew Point ( °F °C ) Humidity (%) Winds ( mph kmh ) Pressure ( in mb ) Visibility ( mi km ) Precip ( " mm )
12:53 am 00:53 Clear 32 0 18 -7.8 56 56 ESE 5 7 30.27 1025 10 16 0.00 0.00
1:53 am 01:53 Clear 32 0 18 -7.8 56 56 ESE 6 9 30.25 1024 10 16 0.00 0.00
2:53 am 02:53 Clear 32 0 18 -7.8 56 56 ESE 5 7 30.23 1024 10 16 0.00 0.00
3:53 am 03:53 Mostly Clear 30 -1.1 18 -7.8 61 61 ESE 5 7 30.22 1023 10 16 0.00 0.00
4:53 am 04:53 Cloudy 33 0.6 20 -6.7 58 58 SE 6 9 30.21 1023 10 16 0.00 0.00
5:53 am 05:53 Cloudy 34 1.1 20 -6.7 56 56 ESE 10 17 30.20 1023 10 16 0.00 0.00
6:53 am 06:53 Cloudy 35 1.7 20 -6.7 54 54 ESE 8 13 30.20 1023 10 16 0.00 0.00
7:53 am 07:53 Mostly Cloudy 36 2.2 21 -6.1 55 55 ESE 7 11 30.21 1023 10 16 0.00 0.00
8:53 am 08:53 Mostly Cloudy 39 3.9 21 -6.1 48 48 SE 8 13 30.21 1023 10 16 0.00 0.00
9:53 am 09:53 Cloudy 42 5.6 23 -5 47 47 SSE 12 19 30.19 1022 10 16 0.00 0.00
10:53 am 10:53 Mostly Cloudy 48 8.9 25 -3.9 41 41 SSE 8 13 30.17 1022 10 16 0.00 0.00
11:53 am 11:53 Cloudy 53 11.7 26 -3.3 35 35 S 12 19 30.15 1021 10 16 0.00 0.00
12:53 pm 12:53 Cloudy 59 15 29 -1.7 32 32 SSE 15 24 30.12 1020 10 16 0.00 0.00
1:53 pm 13:53 Cloudy 57 13.9 33 0.6 41 41 S 17 28 30.11 1020 10 16 0.00 0.00
2:53 pm 14:53 Cloudy 57 13.9 35 1.7 44 44 S 12 19 30.08 1019 10 16 0.00 0.00
3:53 pm 15:53 Cloudy 59 15 39 3.9 48 48 S 12 19 30.04 1017 10 16 0.00 0.00
4:53 pm 16:53 Cloudy 62 16.7 41 5 46 46 S 15 24 29.99 1016 10 16 0.00 0.00
5:53 pm 17:53 Cloudy 62 16.7 43 6.1 50 50 S 14 22 29.96 1015 10 16 0.00 0.00
6:53 pm 18:53 Cloudy 61 16.1 43 6.1 52 52 S 18 30 29.96 1015 10 16 0.00 0.03
7:53 pm 19:53 Cloudy with Light Rain 57 13.9 44 6.7 62 62 S 10 17 29.98 1015 9 14 0.01 0.25
8:53 pm 20:53 Cloudy 53 11.7 46 7.8 77 77 SE 8 13 29.98 1015 10 16 0.01 0.25
9:53 pm 21:53 Mostly Cloudy 53 11.7 41 5 64 64 S 14 22 29.96 1015 10 16 0.00 0.00
10:53 pm 22:53 Mostly Clear 54 12.2 37 2.8 53 53 S 15 24 29.95 1014 10 16 0.00 0.00
11:53 pm 23:53 Mostly Cloudy 54 12.2 36 2.2 51 51 S 17 28 29.94 1014 10 16 0.00 0.00

Powered by AerisWeather